| time (UTC) | temp C | wind direction | speed KPH | gust KPH | rain 1hr cm | rain 24hr cm | rain mn cm | humidity % | barometer mb |
| 20260504141257 | 23 | 65 | 11.3 | 17.7 | 0.00 | 0.00 | 0.00 | 64 | 1015.7 |
| 20260504140717 | 23 | 61 | 6.4 | 17.7 | 0.00 | 0.00 | 0.00 | 63 | 1015.6 |
| 20260504140217 | 24 | 48 | 8.0 | 16.1 | 0.00 | 0.00 | 0.00 | 63 | 1015.6 |
| 20260504130736 | 23 | 28 | 3.2 | 19.3 | 0.00 | 0.00 | 0.00 | 64 | 1015.1 |
| 20260504130216 | 23 | 41 | 4.8 | 19.3 | 0.00 | 0.00 | 0.00 | 64 | 1015.1 |
| 20260504120216 | 23 | 27 | 9.7 | 20.9 | 0.00 | 0.00 | 0.00 | 67 | 1014.6 |
| 20260504110716 | 23 | 33 | 4.8 | 14.5 | 0.00 | 0.64 | 0.00 | 67 | 1013.9 |
| 20260504110216 | 23 | 349 | 4.8 | 14.5 | 0.00 | 0.64 | 0.00 | 68 | 1013.9 |
| 20260504100235 | 23 | 47 | 4.8 | 8.0 | 0.00 | 0.64 | 0.00 | 69 | 1013.5 |
| 20260504081714 | 23 | 356 | 4.8 | 14.5 | 0.00 | 0.64 | 0.00 | 68 | 1013.0 |
| 20260504081214 | 23 | 53 | 1.6 | 14.5 | 0.00 | 0.64 | 0.00 | 68 | 1013.1 |
| 20260504080714 | 23 | 27 | 4.8 | 14.5 | 0.00 | 0.64 | 0.00 | 68 | 1013.2 |
| 20260504080215 | 23 | 22 | 11.3 | 11.3 | 0.00 | 0.64 | 0.00 | 68 | 1012.9 |
| 20260504070214 | 23 | 50 | 4.8 | 14.5 | 0.00 | 0.64 | 0.00 | 69 | 1013.9 |
| 20260504060234 | 23 | 57 | 6.4 | 9.7 | 0.00 | 0.64 | 0.00 | 69 | 1014.5 |
| 20260504050733 | 23 | 65 | 1.6 | 12.9 | 0.00 | 0.64 | 0.00 | 69 | 1014.8 |
| 20260504050233 | 23 | 82 | 4.8 | 12.9 | 0.00 | 0.64 | 0.00 | 69 | 1014.8 |
| 20260504045713 | 23 | 59 | 8.0 | 16.1 | 0.00 | 0.64 | 0.00 | 69 | 1014.9 |
| 20260504045233 | 23 | 63 | 4.8 | 16.1 | 0.00 | 0.64 | 0.00 | 69 | 1014.9 |
| 20260504044713 | 23 | 33 | 3.2 | 14.5 | 0.00 | 0.64 | 0.00 | 68 | 1014.7 |
| 20260504044213 | 23 | 68 | 9.7 | 14.5 | 0.00 | 0.64 | 0.00 | 68 | 1015.1 |
| 20260504043713 | 23 | 65 | 4.8 | 14.5 | 0.00 | 0.64 | 0.00 | 69 | 1015.2 |
| 20260504043213 | 23 | 59 | 4.8 | 14.5 | 0.00 | 0.64 | 0.00 | 69 | 1015.0 |
| 20260504042713 | 23 | 73 | 6.4 | 16.1 | 0.00 | 0.64 | 0.00 | 68 | 1015.1 |
| 20260504042213 | 23 | 47 | 6.4 | 16.1 | 0.00 | 0.64 | 0.00 | 68 | 1015.2 |
| 20260504041713 | 23 | 41 | 4.8 | 16.1 | 0.00 | 0.64 | 0.00 | 69 | 1015.1 |
| 20260504041213 | 23 | 63 | 8.0 | 17.7 | 0.00 | 0.64 | 0.00 | 68 | 1015.1 |
| 20260504040713 | 23 | 48 | 9.7 | 16.1 | 0.00 | 0.64 | 0.00 | 68 | 1015.2 |
| 20260504040253 | 23 | 51 | 4.8 | 16.1 | 0.00 | 0.64 | 0.00 | 69 | 1015.2 |
| 20260504035713 | 23 | 66 | 12.9 | 16.1 | 0.00 | 0.64 | 0.64 | 69 | 1015.5 |
| 20260504035233 | 23 | 72 | 6.4 | 16.1 | 0.00 | 0.64 | 0.64 | 68 | 1015.5 |
| 20260504034713 | 23 | 51 | 11.3 | 16.1 | 0.00 | 0.64 | 0.64 | 68 | 1015.3 |
| 20260504034213 | 23 | 62 | 4.8 | 19.3 | 0.00 | 0.64 | 0.64 | 68 | 1015.5 |
| 20260504033713 | 23 | 55 | 3.2 | 19.3 | 0.00 | 0.64 | 0.64 | 68 | 1015.7 |
| 20260504033213 | 23 | 57 | 11.3 | 14.5 | 0.00 | 0.64 | 0.64 | 68 | 1015.5 |
| 20260504032713 | 23 | 70 | 8.0 | 16.1 | 0.00 | 0.64 | 0.64 | 69 | 1015.8 |
| 20260504032213 | 23 | 61 | 4.8 | 16.1 | 0.00 | 0.64 | 0.64 | 69 | 1015.7 |
| 20260504031713 | 23 | 54 | 11.3 | 12.9 | 0.00 | 0.64 | 0.64 | 69 | 1015.7 |
| 20260504031212 | 23 | 37 | 6.4 | 16.1 | 0.00 | 0.64 | 0.64 | 69 | 1015.6 |
| 20260504030712 | 23 | 56 | 6.4 | 16.1 | 0.00 | 0.64 | 0.64 | 69 | 1015.7 |
| 20260504030212 | 23 | 53 | 4.8 | 14.5 | 0.00 | 0.64 | 0.64 | 70 | 1015.6 |
| 20260504025712 | 23 | 78 | 6.4 | 19.3 | 0.00 | 0.64 | 0.64 | 69 | 1015.6 |
| 20260504025212 | 23 | 53 | 4.8 | 19.3 | 0.00 | 0.64 | 0.64 | 69 | 1015.7 |
| 20260504024712 | 23 | 62 | 11.3 | 19.3 | 0.00 | 0.64 | 0.64 | 68 | 1015.3 |
| 20260504024212 | 23 | 71 | 16.1 | 17.7 | 0.00 | 0.64 | 0.64 | 69 | 1015.4 |
| 20260504023712 | 23 | 53 | 4.8 | 14.5 | 0.00 | 0.64 | 0.64 | 68 | 1015.5 |
| 20260504023232 | 23 | 73 | 6.4 | 11.3 | 0.00 | 0.64 | 0.64 | 68 | 1015.7 |
| 20260504022712 | 23 | 54 | 11.3 | 20.9 | 0.00 | 0.64 | 0.64 | 68 | 1015.5 |
| 20260504022212 | 23 | 32 | 6.4 | 20.9 | 0.00 | 0.64 | 0.64 | 68 | 1015.7 |
| 20260504021712 | 23 | 76 | 12.9 | 12.9 | 0.00 | 0.64 | 0.64 | 67 | 1015.5 |
| 20260504021212 | 23 | 65 | 1.6 | 14.5 | 0.00 | 0.64 | 0.64 | 67 | 1015.5 |
| 20260504020712 | 23 | 71 | 11.3 | 14.5 | 0.00 | 0.64 | 0.64 | 67 | 1015.2 |
| 20260504020212 | 23 | 71 | 14.5 | 14.5 | 0.00 | 0.64 | 0.64 | 67 | 1015.3 |
| 20260504015752 | 23 | 64 | 8.0 | 16.1 | 0.00 | 0.64 | 0.64 | 67 | 1015.4 |
| 20260504015212 | 23 | 67 | 4.8 | 14.5 | 0.00 | 0.64 | 0.64 | 67 | 1015.3 |
| 20260504014712 | 23 | 79 | 8.0 | 12.9 | 0.00 | 0.64 | 0.64 | 68 | 1015.1 |
| 20260504014212 | 23 | 74 | 4.8 | 9.7 | 0.00 | 0.64 | 0.64 | 68 | 1015.0 |
| 20260504013732 | 23 | 70 | 6.4 | 9.7 | 0.00 | 0.64 | 0.64 | 68 | 1015.2 |
| 20260504013212 | 23 | 58 | 8.0 | 8.0 | 0.00 | 0.64 | 0.64 | 68 | 1015.2 |
| 20260504012712 | 23 | 99 | 4.8 | 17.7 | 0.00 | 0.64 | 0.64 | 68 | 1015.1 |
| 20260504012212 | 23 | 102 | 4.8 | 17.7 | 0.00 | 0.64 | 0.64 | 68 | 1015.1 |
| 20260504011732 | 23 | 86 | 8.0 | 12.9 | 0.00 | 0.64 | 0.64 | 68 | 1015.1 |
| 20260504011212 | 23 | 80 | 12.9 | 16.1 | 0.00 | 0.64 | 0.64 | 68 | 1014.9 |
| 20260504010712 | 23 | 65 | 4.8 | 14.5 | 0.00 | 0.64 | 0.64 | 68 | 1015.1 |
| 20260504010212 | 23 | 60 | 3.2 | 6.4 | 0.00 | 0.64 | 0.64 | 68 | 1014.7 |
| 20260504005732 | 23 | 66 | 4.8 | 12.9 | 0.00 | 0.64 | 0.64 | 68 | 1015.1 |
| 20260504005232 | 23 | 60 | 9.7 | 11.3 | 0.00 | 0.64 | 0.64 | 68 | 1015.0 |
| 20260504004712 | 23 | 59 | 6.4 | 9.7 | 0.00 | 0.64 | 0.64 | 68 | 1014.9 |
| 20260504004212 | 23 | 78 | 3.2 | 16.1 | 0.00 | 0.64 | 0.64 | 67 | 1014.9 |
| 20260504003711 | 23 | 44 | 6.4 | 14.5 | 0.00 | 0.64 | 0.64 | 67 | 1015.0 |
| 20260504003211 | 23 | 41 | 9.7 | 14.5 | 0.00 | 0.64 | 0.64 | 68 | 1014.9 |
| 20260504002711 | 23 | 52 | 1.6 | 11.3 | 0.00 | 0.64 | 0.64 | 68 | 1014.7 |
| 20260504002232 | 23 | 30 | 3.2 | 11.3 | 0.00 | 0.64 | 0.64 | 68 | 1014.8 |
| 20260504001711 | 23 | 77 | 4.8 | 11.3 | 0.00 | 0.64 | 0.64 | 68 | 1014.6 |
| 20260504001211 | 23 | 40 | 9.7 | 16.1 | 0.00 | 0.64 | 0.64 | 67 | 1014.4 |
| 20260504000711 | 23 | 71 | 11.3 | 11.3 | 0.00 | 0.64 | 0.64 | 67 | 1014.6 |
| 20260504000252 | 23 | 80 | 1.6 | 8.0 | 0.00 | 0.64 | 0.64 | 66 | 1014.7 |
| 20260503235711 | 23 | 82 | 4.8 | 11.3 | 0.00 | 0.64 | 0.64 | 66 | 1014.5 |
| 20260503235211 | 23 | 38 | 4.8 | 11.3 | 0.00 | 0.64 | 0.64 | 67 | 1014.5 |
| 20260503234711 | 23 | 62 | 4.8 | 11.3 | 0.00 | 0.64 | 0.64 | 66 | 1014.8 |
| 20260503234211 | 23 | 57 | 14.5 | 14.5 | 0.00 | 0.64 | 0.64 | 67 | 1014.5 |
| 20260503233711 | 23 | 67 | 4.8 | 11.3 | 0.00 | 0.64 | 0.64 | 67 | 1014.4 |
| 20260503233211 | 23 | 74 | 9.7 | 9.7 | 0.00 | 0.64 | 0.64 | 67 | 1014.4 |
| 20260503232711 | 23 | 67 | 3.2 | 11.3 | 0.00 | 0.64 | 0.64 | 67 | 1014.5 |
| 20260503232211 | 23 | 42 | 3.2 | 11.3 | 0.00 | 0.64 | 0.64 | 67 | 1014.3 |
| 20260503231711 | 23 | 50 | 3.2 | 11.3 | 0.00 | 0.64 | 0.64 | 67 | 1014.4 |
| 20260503231231 | 23 | 31 | 6.4 | 12.9 | 0.00 | 0.64 | 0.64 | 67 | 1014.3 |
| 20260503230751 | 23 | 38 | 8.0 | 12.9 | 0.00 | 0.64 | 0.64 | 66 | 1014.4 |
| 20260503230211 | 23 | 29 | 3.2 | 12.9 | 0.00 | 0.64 | 0.64 | 66 | 1014.2 |
| 20260503225711 | 23 | 37 | 6.4 | 16.1 | 0.00 | 0.64 | 0.64 | 67 | 1014.0 |
| 20260503225231 | 23 | 63 | 6.4 | 16.1 | 0.00 | 0.64 | 0.64 | 67 | 1014.3 |
| 20260503224711 | 23 | 50 | 8.0 | 16.1 | 0.00 | 0.64 | 0.64 | 67 | 1014.4 |
| 20260503224211 | 23 | 49 | 6.4 | 16.1 | 0.00 | 0.64 | 0.64 | 67 | 1014.1 |
| 20260503223711 | 23 | 33 | 8.0 | 12.9 | 0.00 | 0.64 | 0.64 | 67 | 1014.3 |
| 20260503223211 | 23 | 46 | 6.4 | 11.3 | 0.00 | 0.64 | 0.64 | 66 | 1014.5 |
| 20260503222711 | 23 | 48 | 4.8 | 16.1 | 0.00 | 0.64 | 0.64 | 66 | 1014.3 |
| 20260503222210 | 23 | 68 | 4.8 | 16.1 | 0.00 | 0.64 | 0.64 | 65 | 1014.4 |
| 20260503221710 | 23 | 85 | 4.8 | 6.4 | 0.00 | 0.64 | 0.64 | 65 | 1014.4 |
| 20260503221230 | 23 | 55 | 6.4 | 12.9 | 0.00 | 0.64 | 0.64 | 66 | 1014.5 |
| 20260503220730 | 23 | 50 | 4.8 | 12.9 | 0.00 | 0.64 | 0.64 | 65 | 1014.4 |
| 20260503220210 | 23 | 43 | 6.4 | 11.3 | 0.00 | 0.64 | 0.64 | 65 | 1014.6 |
| 20260503215710 | 23 | 51 | 4.8 | 12.9 | 0.00 | 0.64 | 0.64 | 65 | 1014.3 |
| 20260503215210 | 23 | 59 | 12.9 | 12.9 | 0.00 | 0.64 | 0.64 | 65 | 1014.5 |
| 20260503214710 | 23 | 77 | 4.8 | 8.0 | 0.00 | 0.64 | 0.64 | 65 | 1014.6 |
| 20260503214210 | 23 | 57 | 16.1 | 16.1 | 0.00 | 0.64 | 0.64 | 65 | 1014.5 |
| 20260503213710 | 23 | 55 | 16.1 | 16.1 | 0.00 | 0.64 | 0.64 | 66 | 1014.4 |
| 20260503213210 | 23 | 56 | 4.8 | 12.9 | 0.00 | 0.64 | 0.64 | 66 | 1014.4 |
| 20260503212710 | 23 | 74 | 4.8 | 16.1 | 0.00 | 0.64 | 0.64 | 65 | 1014.7 |
| 20260503212210 | 23 | 73 | 6.4 | 16.1 | 0.00 | 0.64 | 0.64 | 65 | 1014.5 |
| 20260503211710 | 23 | 71 | 9.7 | 16.1 | 0.00 | 0.64 | 0.64 | 65 | 1014.7 |
| 20260503211210 | 23 | 30 | 4.8 | 16.1 | 0.00 | 0.64 | 0.64 | 65 | 1014.5 |
| 20260503210710 | 23 | 67 | 11.3 | 16.1 | 0.00 | 0.64 | 0.64 | 65 | 1014.6 |
| 20260503210210 | 23 | 48 | 6.4 | 16.1 | 0.00 | 0.64 | 0.64 | 65 | 1014.5 |
| 20260503205710 | 23 | 56 | 11.3 | 12.9 | 0.00 | 0.64 | 0.64 | 64 | 1014.6 |
| 20260503205210 | 23 | 33 | 4.8 | 12.9 | 0.00 | 0.64 | 0.64 | 65 | 1014.9 |
| 20260503204710 | 23 | 32 | 3.2 | 11.3 | 0.00 | 0.64 | 0.64 | 65 | 1014.9 |
| 20260503204210 | 23 | 55 | 4.8 | 11.3 | 0.00 | 0.64 | 0.64 | 65 | 1014.9 |
| 20260503203710 | 23 | 61 | 8.0 | 11.3 | 0.00 | 0.64 | 0.64 | 66 | 1015.0 |
| 20260503203209 | 23 | 63 | 6.4 | 11.3 | 0.00 | 0.64 | 0.64 | 65 | 1015.1 |
| 20260503202709 | 23 | 13 | 4.8 | 12.9 | 0.00 | 0.64 | 0.64 | 65 | 1014.9 |
| 20260503202229 | 23 | 66 | 11.3 | 12.9 | 0.00 | 0.64 | 0.64 | 66 | 1014.9 |
| 20260503201709 | 23 | 50 | 4.8 | 11.3 | 0.00 | 0.64 | 0.64 | 65 | 1014.9 |
| 20260503201209 | 23 | 40 | 4.8 | 12.9 | 0.00 | 0.64 | 0.64 | 65 | 1015.1 |
| 20260503200709 | 23 | 72 | 3.2 | 12.9 | 0.00 | 0.64 | 0.64 | 65 | 1014.8 |
| 20260503200229 | 23 | 57 | 11.3 | 11.3 | 0.00 | 0.64 | 0.64 | 67 | 1014.8 |
| 20260503195709 | 23 | 25 | 1.6 | 12.9 | 0.00 | 0.64 | 0.64 | 67 | 1015.2 |
| 20260503195209 | 23 | 31 | 3.2 | 12.9 | 0.00 | 0.64 | 0.64 | 66 | 1014.9 |
| 20260503194709 | 23 | 347 | 4.8 | 9.7 | 0.00 | 0.64 | 0.64 | 66 | 1015.1 |
| 20260503194209 | 23 | 61 | 4.8 | 16.1 | 0.00 | 0.64 | 0.64 | 66 | 1015.1 |
| 20260503193709 | 23 | 37 | 8.0 | 16.1 | 0.00 | 0.64 | 0.64 | 67 | 1015.1 |
| 20260503193209 | 23 | 358 | 4.8 | 16.1 | 0.00 | 0.64 | 0.64 | 66 | 1015.0 |
| 20260503192709 | 23 | 53 | 4.8 | 16.1 | 0.00 | 0.64 | 0.64 | 67 | 1015.0 |
| 20260503192209 | 23 | 40 | 6.4 | 16.1 | 0.00 | 0.64 | 0.64 | 67 | 1015.2 |
| 20260503191710 | 23 | 36 | 6.4 | 6.4 | 0.00 | 0.64 | 0.64 | 68 | 1015.1 |
| 20260503191229 | 23 | 30 | 6.4 | 17.7 | 0.00 | 0.64 | 0.64 | 68 | 1015.2 |
| 20260503190709 | 23 | 43 | 4.8 | 16.1 | 0.00 | 0.64 | 0.64 | 69 | 1015.4 |
| 20260503190229 | 23 | 27 | 4.8 | 11.3 | 0.00 | 0.64 | 0.64 | 68 | 1015.5 |
| 20260503185729 | 22 | 348 | 3.2 | 14.5 | 0.00 | 0.64 | 0.64 | 69 | 1015.5 |
| 20260503185209 | 22 | 27 | 3.2 | 8.0 | 0.00 | 0.64 | 0.64 | 71 | 1015.8 |
| 20260503184729 | 22 | 10 | 1.6 | 6.4 | 0.00 | 0.64 | 0.64 | 71 | 1015.7 |
| 20260503184209 | 22 | 36 | 9.7 | 16.1 | 0.00 | 0.64 | 0.64 | 71 | 1015.8 |
| 20260503183709 | 22 | 44 | 4.8 | 11.3 | 0.00 | 0.64 | 0.64 | 71 | 1015.9 |
| 20260503183229 | 22 | 5 | 3.2 | 9.7 | 0.00 | 0.64 | 0.64 | 72 | 1016.3 |
| 20260503182709 | 22 | 21 | 4.8 | 11.3 | 0.00 | 0.64 | 0.64 | 71 | 1016.4 |
| 20260503182209 | 22 | 37 | 8.0 | 8.0 | 0.00 | 0.64 | 0.64 | 72 | 1016.1 |
| 20260503181709 | 22 | 22 | 4.8 | 8.0 | 0.00 | 0.64 | 0.64 | 71 | 1016.4 |
| 20260503181208 | 22 | 45 | 4.8 | 16.1 | 0.00 | 0.64 | 0.64 | 71 | 1016.3 |
| 20260503180709 | 22 | 19 | 4.8 | 16.1 | 0.00 | 0.64 | 0.64 | 71 | 1016.4 |
| 20260503180208 | 22 | 16 | 9.7 | 14.5 | 0.00 | 0.64 | 0.64 | 71 | 1016.5 |
| 20260503175709 | 22 | 32 | 6.4 | 9.7 | 0.00 | 0.64 | 0.64 | 72 | 1016.4 |
| 20260503175229 | 22 | 49 | 4.8 | 9.7 | 0.00 | 0.64 | 0.64 | 72 | 1016.6 |
| 20260503174708 | 22 | 12 | 4.8 | 8.0 | 0.00 | 0.64 | 0.64 | 72 | 1016.4 |
| 20260503174208 | 22 | 12 | 4.8 | 12.9 | 0.00 | 0.64 | 0.64 | 72 | 1016.5 |
| 20260503173708 | 22 | 349 | 6.4 | 12.9 | 0.00 | 0.64 | 0.64 | 72 | 1016.4 |
| 20260503173208 | 22 | 22 | 4.8 | 12.9 | 0.00 | 0.64 | 0.64 | 73 | 1016.3 |
| 20260503172708 | 22 | 7 | 4.8 | 12.9 | 0.00 | 0.64 | 0.64 | 73 | 1016.5 |
| 20260503172208 | 22 | 25 | 1.6 | 11.3 | 0.00 | 0.64 | 0.64 | 72 | 1016.4 |
| 20260503171708 | 22 | 17 | 3.2 | 11.3 | 0.00 | 0.64 | 0.64 | 72 | 1016.3 |
| 20260503171208 | 22 | 56 | 3.2 | 17.7 | 0.00 | 0.64 | 0.64 | 71 | 1016.3 |
| 20260503170708 | 22 | 43 | 11.3 | 17.7 | 0.00 | 0.64 | 0.64 | 70 | 1016.3 |
| 20260503170208 | 22 | 21 | 4.8 | 16.1 | 0.00 | 0.64 | 0.64 | 70 | 1016.1 |
| 20260503160208 | 21 | 35 | 4.8 | 12.9 | 0.00 | 0.64 | 0.64 | 77 | 1016.6 |
| 20260503150708 | 22 | 25 | 4.8 | 12.9 | 0.00 | 0.64 | 0.64 | 76 | 1016.6 |
| 20260503150208 | 22 | 58 | 6.4 | 12.9 | 0.00 | 0.64 | 0.64 | 76 | 1016.7 |